Previsão horária em Abejorral

Hoje, 11 Abril, Domingo

Tempo Temperatura Precipitação Vento Pressão Humidade
00:00 +12°C° 1.3 mm 0 m/s 585 mmHg 98%
01:00 +12°C° 1.3 mm 0 m/s 584 mmHg 98%
02:00 +12°C° 2.2 mm 0 m/s 584 mmHg 98%
03:00 +12°C° 2.2 mm 0 m/s 584 mmHg 98%
04:00 +12°C° 2.2 mm 0 m/s 584 mmHg 99%
05:00 +12°C° 2.2 mm 0 m/s 584 mmHg 98%
06:00 +12°C° 2.2 mm 0 m/s 585 mmHg 98%
07:00 +12°C° 2.2 mm 0 m/s 585 mmHg 98%
08:00 +13°C° 1 mm 0 m/s 586 mmHg 96%
09:00 +13°C° 1 mm 0 m/s 586 mmHg 94%
10:00 +14°C° 1 mm 0 m/s 587 mmHg 92%
11:00 +15°C° 0.2 mm 0 m/s 587 mmHg 85%
12:00 +16°C° 0.2 mm 0 m/s 586 mmHg 78%
13:00 +17°C° 0.2 mm 0 m/s 586 mmHg 72%
14:00 +17°C° 0 mm 0 m/s 585 mmHg 72%
15:00 +17°C° 0 mm 0 m/s 585 mmHg 73%
16:00 +17°C° 0 mm 0 m/s 584 mmHg 74%
17:00 +16°C° 0 mm 0 m/s 584 mmHg 80%
18:00 +15°C° 0 mm 0 m/s 584 mmHg 86%
19:00 +14°C° 0 mm 0 m/s 584 mmHg 92%
20:00 +13°C° 0 mm 0 m/s 584 mmHg 93%
21:00 +13°C° 0 mm 0 m/s 585 mmHg 93%
22:00 +12°C° 0 mm 0 m/s 585 mmHg 93%
23:00 +12°C° 0 mm 0 m/s 585 mmHg 94%

Amanhã, 12 Abril, Segunda-feira

Tempo Temperatura Precipitação Vento Pressão Humidade
00:00 +12°C° 0 mm 0 m/s 584 mmHg 94%
01:00 +11°C° 0 mm 0 m/s 584 mmHg 94%
02:00 +11°C° 0 mm 0 m/s 584 mmHg 94%
03:00 +11°C° 0 mm 0 m/s 584 mmHg 93%
04:00 +11°C° 0 mm 0 m/s 584 mmHg 93%
05:00 +11°C° 0 mm 0 m/s 584 mmHg 90%
06:00 +12°C° 0 mm 0 m/s 585 mmHg 88%
07:00 +13°C° 0 mm 0 m/s 585 mmHg 85%
08:00 +15°C° 0 mm 0 m/s 586 mmHg 77%
09:00 +19°C° 0 mm 1 m/s 587 mmHg 68%
10:00 +21°C° 0 mm 1 m/s 588 mmHg 59%
11:00 +22°C° 0.2 mm 1 m/s 587 mmHg 58%
12:00 +23°C° 0.2 mm 1 m/s 587 mmHg 57%
13:00 +24°C° 0.2 mm 1 m/s 586 mmHg 55%
14:00 +23°C° 0.6 mm 1 m/s 586 mmHg 60%
15:00 +23°C° 0.6 mm 1 m/s 585 mmHg 65%
16:00 +22°C° 0.6 mm 1 m/s 585 mmHg 70%
17:00 +20°C° 0.8 mm 1 m/s 584 mmHg 78%
18:00 +18°C° 0.8 mm 1 m/s 584 mmHg 86%
19:00 +15°C° 0.8 mm 1 m/s 584 mmHg 94%
20:00 +14°C° 0.4 mm 1 m/s 584 mmHg 95%
21:00 +14°C° 0.4 mm 1 m/s 585 mmHg 96%
22:00 +13°C° 0.4 mm 1 m/s 585 mmHg 97%
23:00 +13°C° 0.4 mm 1 m/s 585 mmHg 97%

Depois de amanhã, 13 Abril, Terça-feira

Tempo Temperatura Precipitação Vento Pressão Humidade
00:00 +13°C° 0.4 mm 1 m/s 585 mmHg 97%
01:00 +13°C° 0.4 mm 1 m/s 585 mmHg 97%
02:00 +13°C° 0.5 mm 1 m/s 584 mmHg 97%
03:00 +13°C° 0.5 mm 1 m/s 584 mmHg 97%
04:00 +12°C° 0.5 mm 0 m/s 584 mmHg 97%
05:00 +12°C° 0.2 mm 0 m/s 584 mmHg 97%
06:00 +12°C° 0.2 mm 0 m/s 585 mmHg 96%
07:00 +13°C° 0.2 mm 0 m/s 585 mmHg 96%
08:00 +15°C° 0 mm 0 m/s 586 mmHg 85%
09:00 +19°C° 0 mm 1 m/s 587 mmHg 75%
10:00 +21°C° 0 mm 1 m/s 588 mmHg 64%
11:00 +22°C° 0.1 mm 1 m/s 588 mmHg 61%
12:00 +22°C° 0.1 mm 1 m/s 587 mmHg 58%
13:00 +23°C° 0.1 mm 1 m/s 587 mmHg 54%
14:00 +22°C° 0.2 mm 1 m/s 586 mmHg 61%
15:00 +21°C° 0.2 mm 1 m/s 585 mmHg 67%
16:00 +20°C° 0.2 mm 1 m/s 585 mmHg 74%
17:00 +19°C° 0.2 mm 1 m/s 585 mmHg 80%
18:00 +16°C° 0.2 mm 1 m/s 584 mmHg 86%
19:00 +15°C° 0.2 mm 1 m/s 584 mmHg 92%
20:00 +14°C° 0 mm 1 m/s 585 mmHg 93%
21:00 +14°C° 0 mm 1 m/s 585 mmHg 93%
22:00 +13°C° 0 mm 1 m/s 585 mmHg 93%
23:00 +13°C° 0 mm 1 m/s 585 mmHg 93%

14 Abril, Quarta-feira

Tempo Temperatura Precipitação Vento Pressão Humidade
00:00 +13°C° 0 mm 1 m/s 585 mmHg 93%
01:00 +13°C° 0 mm 1 m/s 584 mmHg 93%
02:00 +12°C° 0 mm 1 m/s 584 mmHg 93%
03:00 +12°C° 0 mm 1 m/s 584 mmHg 93%
04:00 +12°C° 0 mm 1 m/s 584 mmHg 93%
05:00 +12°C° 0 mm 1 m/s 584 mmHg 90%
06:00 +12°C° 0 mm 0 m/s 585 mmHg 87%
07:00 +13°C° 0 mm 0 m/s 585 mmHg 85%
08:00 +15°C° 0 mm 0 m/s 586 mmHg 74%
09:00 +20°C° 0 mm 1 m/s 587 mmHg 63%
10:00 +23°C° 0 mm 1 m/s 588 mmHg 53%
11:00 +23°C° 0 mm 1 m/s 588 mmHg 51%
12:00 +24°C° 0 mm 1 m/s 587 mmHg 49%
13:00 +25°C° 0 mm 1 m/s 587 mmHg 47%
14:00 +24°C° 0.4 mm 1 m/s 586 mmHg 54%
15:00 +23°C° 0.4 mm 1 m/s 586 mmHg 60%
16:00 +22°C° 0.4 mm 1 m/s 585 mmHg 66%
17:00 +20°C° 1.4 mm 1 m/s 585 mmHg 76%
18:00 +18°C° 1.4 mm 1 m/s 584 mmHg 86%
19:00 +15°C° 1.4 mm 1 m/s 584 mmHg 96%
20:00 +14°C° 1.6 mm 1 m/s 585 mmHg 96%
21:00 +14°C° 1.6 mm 1 m/s 585 mmHg 97%
22:00 +14°C° 1.6 mm 1 m/s 585 mmHg 98%
23:00 +14°C° 1.5 mm 1 m/s 585 mmHg 98%

15 Abril, Quinta-feira

Tempo Temperatura Precipitação Vento Pressão Humidade
00:00 +12°C° 1.5 mm 0 m/s 585 mmHg 98%
01:00 +12°C° 1.5 mm 0 m/s 584 mmHg 97%
02:00 +12°C° 0.3 mm 0 m/s 584 mmHg 97%
03:00 +12°C° 0.3 mm 0 m/s 584 mmHg 97%
04:00 +13°C° 0.3 mm 1 m/s 584 mmHg 97%
05:00 +12°C° 0.1 mm 0 m/s 584 mmHg 96%
06:00 +12°C° 0.1 mm 0 m/s 585 mmHg 96%
07:00 +13°C° 0.1 mm 0 m/s 585 mmHg 96%
08:00 +14°C° 0.1 mm 0 m/s 586 mmHg 89%
09:00 +16°C° 0.1 mm 0 m/s 587 mmHg 83%
10:00 +19°C° 0.1 mm 1 m/s 587 mmHg 77%
11:00 +20°C° 0.4 mm 1 m/s 587 mmHg 74%
12:00 +21°C° 0.4 mm 1 m/s 587 mmHg 71%
13:00 +21°C° 0.4 mm 1 m/s 586 mmHg 68%
14:00 +18°C° 1.2 mm 0 m/s 585 mmHg 76%
15:00 +17°C° 1.2 mm 0 m/s 585 mmHg 84%
16:00 +16°C° 1.2 mm 0 m/s 584 mmHg 92%
17:00 +15°C° 0.9 mm 0 m/s 584 mmHg 94%
18:00 +14°C° 0.9 mm 0 m/s 584 mmHg 95%
19:00 +13°C° 0.9 mm 0 m/s 585 mmHg 97%
20:00 +13°C° 1.9 mm 0 m/s 585 mmHg 98%
21:00 +13°C° 1.9 mm 0 m/s 585 mmHg 98%
22:00 +13°C° 1.9 mm 0 m/s 586 mmHg 98%
23:00 +13°C° 3 mm 0 m/s 585 mmHg 98%

16 Abril, Sexta-feira

Tempo Temperatura Precipitação Vento Pressão Humidade
00:00 +12°C° 3 mm 0 m/s 585 mmHg 99%
01:00 +12°C° 3 mm 0 m/s 585 mmHg 99%
02:00 +12°C° 1.4 mm 0 m/s 585 mmHg 99%
03:00 +12°C° 1.4 mm 0 m/s 584 mmHg 98%
04:00 +12°C° 1.4 mm 0 m/s 584 mmHg 98%
05:00 +12°C° 0.4 mm 0 m/s 585 mmHg 98%
06:00 +12°C° 0.4 mm 0 m/s 585 mmHg 98%
07:00 +12°C° 0.4 mm 0 m/s 585 mmHg 98%
08:00 +13°C° 0.2 mm 0 m/s 586 mmHg 96%
09:00 +13°C° 0.2 mm 0 m/s 586 mmHg 95%
10:00 +14°C° 0.2 mm 0 m/s 586 mmHg 94%
11:00 +15°C° 0.1 mm 0 m/s 586 mmHg 84%
12:00 +17°C° 0.1 mm 0 m/s 586 mmHg 75%
13:00 +21°C° 0.1 mm 1 m/s 586 mmHg 65%
14:00 +20°C° 0.3 mm 1 m/s 586 mmHg 68%
15:00 +20°C° 0.3 mm 1 m/s 585 mmHg 72%
16:00 +18°C° 0.3 mm 0 m/s 585 mmHg 76%
17:00 +16°C° 0.9 mm 0 m/s 585 mmHg 82%
18:00 +15°C° 0.9 mm 0 m/s 584 mmHg 89%
19:00 +13°C° 0.9 mm 0 m/s 584 mmHg 96%
20:00 +13°C° 1 mm 0 m/s 585 mmHg 97%
21:00 +13°C° 1 mm 0 m/s 585 mmHg 97%
22:00 +12°C° 1 mm 0 m/s 585 mmHg 97%
23:00 +12°C° 1.1 mm 0 m/s 585 mmHg 98%
Mostrar mais